Waarnemingen

Advertentie
Mijn weer
Luqa, Malta (16597): temperatuur & dauwpunt: 20.04.2018 22:00:00 - 26.04.2018 22:00:00 (CEST)Luqa, Malta (16597): windsnelheid: 20.04.2018 22:00:00 - 26.04.2018 22:00:00 (CEST)Luqa, Malta (16597): windrichting: 20.04.2018 22:00:00 - 26.04.2018 22:00:00 (CEST)Luqa, Malta (16597): luchtdruk: 20.04.2018 22:00:00 - 26.04.2018 22:00:00 (CEST)Luqa, Malta (16597): zicht: 20.04.2018 22:00:00 - 26.04.2018 22:00:00 (CEST)
Datum & Tijd tt [°C] td [°C] ff [km/u] ff [kn] dd ppp [hPa] vv [km]
26.04.2018 22:00:00 18,0 16,0 18 10 OZO - 10
26.04.2018 21:00:00 18,0 16,0 15 8 OZO - 10
26.04.2018 20:00:00 18,4 15,3 16 9 OZO 1010,8 10
26.04.2018 19:00:00 19,0 14,0 22 12 OZO - 10
26.04.2018 18:00:00 20,0 13,0 21 11 OZO - 10
26.04.2018 17:00:00 22,2 11,0 22 12 OZO 1011,8 10
26.04.2018 16:00:00 22,0 11,0 18 10 OZO - 10
26.04.2018 15:00:00 23,0 11,0 21 11 ZO - 10
26.04.2018 14:00:00 23,3 10,1 22 12 ZO 1012,9 10
26.04.2018 13:00:00 24,0 10,0 26 14 Z - 10
26.04.2018 12:00:00 22,0 11,0 24 13 Z - 10
26.04.2018 11:00:00 22,0 12,7 26 14 Z 1014,7 10
26.04.2018 10:00:00 21,0 13,0 18 10 Z - 10
26.04.2018 09:00:00 19,0 16,0 15 8 ZZO - 10
26.04.2018 08:00:00 17,7 17,6 13 7 ZZO 1014,8 10
26.04.2018 07:00:00 17,0 17,0 5 3 Z - 9
26.04.2018 06:00:00 16,0 16,0 11 6 OZO - 9
26.04.2018 05:00:00 14,7 14,7 4 2 ZZW 1015,2 9
26.04.2018 04:00:00 15,0 15,0 2 1 ZZO - 10
26.04.2018 03:00:00 15,0 15,0 2 1 ZZO - 10
26.04.2018 02:00:00 15,6 14,8 5 3 OZO 1016,5 10
26.04.2018 01:00:00 16,0 14,0 5 3 OZO - 10
26.04.2018 00:00:00 16,0 14,0 4 2 O - 10
25.04.2018 23:00:00 17,0 14,2 5 3 O 1017,7 10
25.04.2018 22:00:00 17,0 13,0 5 3 O - 10
25.04.2018 21:00:00 18,0 13,0 4 2 O - 10
25.04.2018 20:00:00 18,3 13,0 8 4 ZZO 1017,3 10
25.04.2018 19:00:00 20,0 12,0 11 6 Z - 10
25.04.2018 18:00:00 20,0 11,0 13 7 Z - 10
25.04.2018 17:00:00 22,0 10,0 15 8 Z - 10
25.04.2018 16:00:00 23,0 8,0 15 8 ZZW - 10
25.04.2018 15:00:00 25,0 8,0 13 7 ZZW - 10
25.04.2018 14:00:00 24,5 7,3 13 7 ZZW 1018,8 10
25.04.2018 13:00:00 24,0 8,0 13 7 ZZW - 10
25.04.2018 12:00:00 24,0 8,0 13 7 ZW - 10
25.04.2018 11:00:00 22,7 7,5 13 7 ZZW 1019,3 10
25.04.2018 10:00:00 22,0 11,0 11 6 ZZW - 10
25.04.2018 09:00:00 22,0 8,0 9 5 Z - 10
25.04.2018 08:00:00 20,0 11,0 2 1 - 1019,1 10
25.04.2018 07:00:00 16,0 9,0 4 2 WNW - 10
25.04.2018 06:00:00 14,0 8,0 8 4 WNW - 10
25.04.2018 05:00:00 14,5 7,7 4 2 W 1018,7 10
25.04.2018 04:00:00 15,0 7,0 5 3 NNW - 10
25.04.2018 03:00:00 15,0 8,0 4 2 NNW - 10
25.04.2018 02:00:00 15,0 9,3 5 3 NW 1019,4 10
25.04.2018 01:00:00 16,0 9,0 4 2 NNW - 10
25.04.2018 00:00:00 16,0 10,0 5 3 NNW - 10
24.04.2018 23:00:00 16,6 11,2 4 2 NNO 1020,0 10
24.04.2018 22:00:00 18,0 14,0 2 1 - - 10
24.04.2018 21:00:00 18,0 14,0 2 1 WNW - 10
24.04.2018 20:00:00 18,9 14,6 4 2 ZZO 1019,0 10
24.04.2018 19:00:00 20,0 15,0 11 6 ZZO - 10
24.04.2018 18:00:00 22,0 15,0 9 5 ZO - 10
24.04.2018 17:00:00 24,0 15,5 13 7 ZO 1018,9 10
24.04.2018 16:00:00 25,0 16,0 13 7 ZO - 10
24.04.2018 15:00:00 25,0 15,0 9 5 Z - 10
24.04.2018 14:00:00 25,0 16,3 15 8 ZO 1019,8 10
24.04.2018 13:00:00 25,0 14,0 11 6 NO - 10
24.04.2018 12:00:00 24,0 16,0 9 5 ONO - 10
24.04.2018 11:00:00 25,7 11,4 8 4 ZW 1020,3 10
24.04.2018 10:00:00 24,0 13,0 4 2 - - 10
24.04.2018 09:00:00 22,0 13,0 4 2 - - 10
24.04.2018 08:00:00 19,9 14,0 4 2 - 1019,5 10
24.04.2018 07:00:00 16,0 13,0 4 2 WZW - 10
24.04.2018 06:00:00 15,0 13,0 8 4 W - 10
24.04.2018 05:00:00 15,3 11,6 5 3 W 1018,4 10
24.04.2018 04:00:00 16,0 12,0 8 4 W - 10
24.04.2018 03:00:00 15,0 12,0 8 4 WNW - 10
24.04.2018 02:00:00 15,2 11,6 9 5 W 1018,7 10
24.04.2018 01:00:00 16,0 12,0 5 3 W - 10
24.04.2018 00:00:00 16,0 11,0 8 4 W - 10
23.04.2018 23:00:00 16,2 11,9 8 4 W 1019,4 10
23.04.2018 22:00:00 17,0 13,0 5 3 NW - 10
23.04.2018 21:00:00 17,0 13,0 5 3 NW - 10
23.04.2018 20:00:00 18,1 12,8 9 5 NNW 1018,5 10
23.04.2018 19:00:00 20,0 14,0 11 6 N - 10
23.04.2018 18:00:00 22,0 13,0 9 5 NO - 10
23.04.2018 17:00:00 23,1 12,3 9 5 ONO 1018,0 10
23.04.2018 16:00:00 23,0 14,0 5 3 ZZW - 10
23.04.2018 15:00:00 23,0 13,0 11 6 ONO - 10
23.04.2018 14:00:00 23,1 12,0 13 7 O 1018,9 10
23.04.2018 13:00:00 24,0 13,0 15 8 NO - 10
23.04.2018 12:00:00 24,0 11,0 11 6 ONO - 10
23.04.2018 11:00:00 22,8 10,5 11 6 NO 1019,7 10
23.04.2018 10:00:00 22,0 10,0 13 7 N - 10
23.04.2018 09:00:00 20,0 12,0 11 6 N - 10
23.04.2018 08:00:00 17,0 13,5 5 3 NNW 1019,0 10
23.04.2018 07:00:00 14,0 13,0 5 3 W - 10
23.04.2018 06:00:00 14,0 13,0 5 3 W - 10
23.04.2018 05:00:00 14,7 13,5 9 5 WZW 1019,2 10
23.04.2018 04:00:00 14,0 12,0 5 3 WZW - 10
23.04.2018 03:00:00 15,0 11,0 8 4 W - 10
23.04.2018 02:00:00 14,6 11,1 8 4 W 1019,4 10
23.04.2018 01:00:00 15,0 11,0 5 3 NW - 10
23.04.2018 00:00:00 15,0 10,0 8 4 W - 10
22.04.2018 23:00:00 15,6 10,2 8 4 W 1019,7 10
22.04.2018 22:00:00 16,0 10,0 5 3 NW - 10
22.04.2018 21:00:00 17,0 10,0 4 2 NW - 10
22.04.2018 20:00:00 18,4 10,3 5 3 NW 1019,1 10
22.04.2018 19:00:00 20,0 11,0 8 4 W - 10
22.04.2018 18:00:00 21,0 10,0 11 6 WZW - 10
22.04.2018 17:00:00 20,1 11,3 5 3 WZW 1019,1 10
22.04.2018 16:00:00 22,0 11,0 16 9 WZW - 10
22.04.2018 15:00:00 22,0 11,0 9 5 W - 10
22.04.2018 14:00:00 23,3 8,9 15 8 WZW 1019,2 10
22.04.2018 13:00:00 23,0 9,0 13 7 WZW - 10
22.04.2018 12:00:00 23,0 10,0 9 5 W - 10
22.04.2018 11:00:00 20,6 10,2 9 5 W 1020,3 10
22.04.2018 10:00:00 20,0 12,0 9 5 WZW - 10
22.04.2018 09:00:00 19,0 11,0 5 3 WZW - 10
22.04.2018 08:00:00 16,8 11,2 8 4 WZW 1019,6 10
22.04.2018 07:00:00 14,0 10,0 2 1 - - 10
22.04.2018 06:00:00 13,0 10,0 4 2 ZZW - 10
22.04.2018 05:00:00 14,2 10,1 5 3 WNW 1019,0 10
22.04.2018 04:00:00 14,0 10,0 5 3 WZW - 10
22.04.2018 03:00:00 14,0 11,0 4 2 W - 10
22.04.2018 02:00:00 14,8 12,4 2 1 - 1019,5 10
22.04.2018 01:00:00 15,0 14,0 5 3 W - 10
22.04.2018 00:00:00 15,0 14,0 8 4 ZW - 10
21.04.2018 23:00:00 16,6 11,6 5 3 ZW 1020,1 10
21.04.2018 22:00:00 17,0 10,0 8 4 WNW - 10
21.04.2018 21:00:00 17,0 11,0 8 4 W - 10
21.04.2018 20:00:00 18,5 11,2 5 3 NNW 1019,2 10
21.04.2018 19:00:00 20,0 10,0 11 6 NW - 10
21.04.2018 18:00:00 22,0 11,0 11 6 WNW - 10
21.04.2018 17:00:00 23,1 10,7 9 5 NW 1018,9 10
21.04.2018 16:00:00 23,0 15,0 5 3 ONO - 10
21.04.2018 15:00:00 25,0 12,0 13 7 NW - 10
21.04.2018 14:00:00 24,0 12,3 9 5 NO 1019,5 10
21.04.2018 13:00:00 24,0 15,0 11 6 ZW - 10
21.04.2018 12:00:00 25,0 9,0 9 5 N - 10
21.04.2018 11:00:00 23,2 13,6 9 5 NNO 1019,7 10
21.04.2018 10:00:00 23,0 13,0 9 5 N - 10
21.04.2018 09:00:00 21,0 14,0 5 3 NNW - 10
21.04.2018 08:00:00 17,7 14,2 9 5 NNW 1018,8 10
21.04.2018 07:00:00 15,0 13,0 2 1 - - 10
21.04.2018 06:00:00 15,0 12,0 5 3 NNW - 10
21.04.2018 05:00:00 15,7 10,5 8 4 W 1018,4 10
21.04.2018 04:00:00 16,0 11,0 8 4 NW - 10
21.04.2018 03:00:00 16,0 11,0 5 3 WNW - 10
21.04.2018 02:00:00 15,9 10,2 5 3 WNW 1019,1 10
21.04.2018 01:00:00 16,0 11,0 11 6 WNW - 10
21.04.2018 00:00:00 16,0 11,0 8 4 NW - 10
20.04.2018 23:00:00 16,3 13,4 8 4 WZW 1019,4 10
20.04.2018 22:00:00 17,0 13,0 13 7 N - 10

tt = temperatuur
td = dauwpunt
ff = windsnelheid
dd = windrichting
ppp = luchtdruk
vv = zicht

Weerstations in de omgeving